Everett, WA
on Friday, February 1, 2013

Friday
Previous Day Next Day
Daily Summary
 ActualAverageRecord
Temperature
Mean Temperature °F °F  
Max Temperature 48°F 46°F 63°F (1960)
Min Temperature 42°F 33°F 2°F (1950)
Degree Days
Heating Degree Days 20    
Moisture
Dew Point 42°F   
Average Humidity 91    
Maximum Humidity 96    
Minimum Humidity 74    
Precipitation
Precipitation 0.03 in in in ()
Wind
Wind Speed 4 mph   
Max Wind Speed 8 mph   
Max Gust Speed mph   
Visibility 5 miles   
Events Fog , Rain   
Averages and records for this station are not official NWS values.
Key: T is trace of precipitation, MM is missing value
Source: NWS Daily Summary
Seasonal Weather Averages
Time(PST)TemperatureDew PointHumidity Pressure Visibility Wind DirectionWind SpeedGust SpeedPrecipitationEvents Conditions
12:13 AM 46.4°F 44.6°F 93% 30.33 in 1.8 miles Calm Calm - 0.00 in Rain Light Rain
12:53 AM 45.0°F 43.0°F 93% 30.34 in 0.2 miles North 4.6 mph - 0.02 in Fog , Rain Light Rain
1:05 AM 44.6°F 42.8°F 93% 30.34 in 1.0 miles North 4.6 mph - 0.01 in Rain Light Rain
1:13 AM 44.6°F 42.8°F 93% 30.34 in 2.0 miles North 5.8 mph - 0.01 in Rain Light Rain
1:19 AM 44.6°F 42.8°F 93% 30.34 in 0.8 miles North 5.8 mph - 0.01 in   Mist
1:33 AM 44.6°F 42.8°F 93% 30.34 in 2.0 miles North 8.1 mph - 0.01 in   Overcast
1:40 AM 44.6°F 42.8°F 93% 30.35 in 8.0 miles North 5.8 mph - 0.01 in   Overcast
1:53 AM 44.1°F 42.1°F 93% 30.36 in 7.0 miles NNW 5.8 mph - 0.01 in   Overcast
2:53 AM 44.1°F 42.1°F 93% 30.37 in 10.0 miles North 4.6 mph - 0.00 in   Overcast
3:30 AM 44.6°F 41.0°F 87% 30.36 in 10.0 miles North 4.6 mph - N/A   Overcast
3:53 AM 44.1°F 41.0°F 89% 30.38 in 10.0 miles North 4.6 mph - N/A   Overcast
4:09 AM 44.6°F 41.0°F 87% 30.37 in 10.0 miles North 3.5 mph - N/A   Overcast
4:53 AM 44.1°F 41.0°F 89% 30.38 in 10.0 miles NNE 3.5 mph - N/A   Overcast
5:15 AM 44.6°F 42.8°F 93% 30.37 in 10.0 miles NNE 3.5 mph - N/A   Overcast
5:48 AM 44.6°F 41.0°F 87% 30.37 in 10.0 miles NNE 3.5 mph - N/A   Overcast
5:53 AM 44.1°F 41.0°F 89% 30.38 in 10.0 miles NNE 4.6 mph - N/A   Overcast
6:06 AM 44.6°F 42.8°F 93% 30.38 in 10.0 miles NNE 3.5 mph - N/A   Overcast
6:13 AM 44.6°F 42.8°F 93% 30.38 in 10.0 miles NNE 4.6 mph - 0.00 in Rain Light Rain
6:53 AM 44.6°F 42.8°F 93% 30.38 in 3.0 miles ENE 5.8 mph - N/A Rain Light Rain
7:15 AM 44.6°F 42.8°F 93% 30.38 in 5.0 miles NE 4.6 mph - 0.00 in   Overcast
7:34 AM 44.6°F 42.8°F 93% 30.37 in 7.0 miles Calm Calm - 0.00 in   Overcast
7:53 AM 44.1°F 42.1°F 93% 30.39 in 1.0 miles NE 3.5 mph - 0.00 in   Overcast
8:53 AM 44.1°F 42.1°F 93% 30.39 in 1.0 miles East 4.6 mph - N/A   Overcast
9:00 AM 44.6°F 41.0°F 87% 30.38 in 3.0 miles East 3.5 mph - N/A Fog Fog
9:07 AM 42.8°F 41.0°F 93% 30.38 in 0.5 miles Calm Calm - N/A Fog Fog
9:53 AM 44.1°F 42.1°F 93% 30.40 in 0.5 miles Calm Calm - N/A Fog Fog
10:00 AM 44.6°F 42.8°F 93% 30.39 in 0.2 miles Calm Calm - N/A Fog Fog
10:30 AM 44.6°F 42.8°F 93% 30.40 in 0.5 miles Calm Calm - N/A Fog Fog
10:46 AM 44.6°F 42.8°F 93% 30.41 in 0.2 miles Calm Calm - N/A Fog Fog
10:53 AM 44.1°F 43.0°F 96% 30.42 in 0.5 miles Calm Calm - N/A Fog Fog
11:00 AM 44.6°F 42.8°F 93% 30.41 in 0.2 miles Calm Calm - N/A Fog Fog
11:53 AM 44.1°F 42.1°F 93% 30.41 in 1.0 miles Calm Calm - N/A   Overcast
12:13 PM 44.6°F 42.8°F 93% 30.40 in 2.0 miles NNE 4.6 mph - N/A   Overcast
12:43 PM 44.6°F 42.8°F 93% 30.40 in 3.0 miles North 4.6 mph - N/A   Overcast
12:53 PM 45.0°F 43.0°F 93% 30.41 in 10.0 miles North 3.5 mph - N/A   Overcast
1:12 PM 46.4°F 42.8°F 87% 30.39 in 10.0 miles NNE 3.5 mph - N/A   Overcast
1:53 PM 48.2°F 42.8°F 82% 30.38 in 10.0 miles ENE 3.5 mph - N/A   Mostly Cloudy
2:30 PM 48.2°F 42.8°F 82% 30.38 in 10.0 miles Calm Calm - N/A   Partly Cloudy
2:53 PM 48.9°F 41.0°F 74% 30.39 in 10.0 miles NNW 4.6 mph - N/A   Clear
3:53 PM 48.0°F 39.9°F 74% 30.39 in 10.0 miles NNW 4.6 mph - N/A   Partly Cloudy
4:53 PM 46.0°F 39.9°F 79% 30.39 in 10.0 miles North 3.5 mph - N/A   Clear
5:53 PM 44.1°F 39.9°F 85% 30.39 in 10.0 miles North 4.6 mph - N/A   Clear
6:53 PM 43.0°F 39.9°F 89% 30.39 in 10.0 miles North 8.1 mph - N/A   Clear
7:53 PM 42.1°F 39.9°F 92% 30.40 in 8.0 miles North 5.8 mph - N/A   Clear
8:24 PM 42.8°F 39.2°F 87% 30.39 in 5.0 miles North 6.9 mph - N/A   Scattered Clouds
8:33 PM 42.8°F 39.2°F 87% 30.39 in 4.0 miles North 6.9 mph - N/A   Mostly Cloudy
8:47 PM 42.8°F 41.0°F 93% 30.39 in 1.8 miles North 5.8 mph - N/A   Overcast
8:53 PM 43.0°F 41.0°F 93% 30.40 in 1.2 miles North 6.9 mph - N/A   Overcast
9:28 PM 42.8°F 41.0°F 93% 30.39 in 3.0 miles North 4.6 mph - N/A   Overcast
9:53 PM 43.0°F 41.0°F 93% 30.40 in 4.0 miles North 5.8 mph - N/A   Overcast
10:15 PM 42.8°F 41.0°F 93% 30.39 in 2.5 miles North 3.5 mph - N/A   Overcast
10:26 PM 42.8°F 41.0°F 93% 30.39 in 1.5 miles North 4.6 mph - N/A   Overcast
10:48 PM 42.8°F 41.0°F 93% 30.38 in 0.5 miles NNE 6.9 mph - N/A Fog Fog
10:53 PM 43.0°F 41.0°F 93% 30.39 in 0.5 miles North 5.8 mph - N/A Fog Fog
11:11 PM 42.8°F 41.0°F 93% 30.38 in 0.2 miles North 6.9 mph - N/A Fog Fog
11:53 PM 42.1°F 39.9°F 92% 30.39 in 0.2 miles North 4.6 mph - N/A Fog Fog
Moon Phase
Feb. 01 Feb. 03 Feb. 10 Feb. 17 Feb. 25
Sunrise:07:36 AM (PST) Moon Rise:11:56 PM (PST)
Sunset:05:10 PM (PST) Moon Set:09:42 AM (PST)

Copyright © 2014 The Weather Underground, Inc.